Data for 12/19/2016

Time Sea-Level Adjusted Pressure Absolute Pressure Temperature Relative Humidity Dew Point   
(mb) (inHg) (mb) (inHg) (C) (F) (%) (C) (F)
00:05 1025 30.27 855 25.25 -10.1 13.8 57 -17 1.4
00:10 1025 30.27 854 25.22 -11 12.1 59 -17.5 0.5
00:15 1025 30.27 854 25.22 -11.1 12 59 -17.7 0.1
00:20 1025 30.27 855 25.25 -10.6 12.9 58 -17.3 0.9
00:25 1025 30.27 855 25.25 -10.7 12.8 59 -17.2 1
00:30 1025 30.27 855 25.25 -10.5 13.2 57 -17.4 0.7
00:35 1025 30.27 855 25.25 -10.4 13.3 57 -17.4 0.6
00:40 1025 30.27 854 25.22 -10.4 13.3 57 -17.4 0.7
00:45 1025 30.27 854 25.22 -10.7 12.8 57 -17.6 0.4
00:50 1025 30.27 854 25.22 -11 12.1 59 -17.6 0.3
00:55 1025 30.27 854 25.22 -12 10.3 61 -18.1 -0.5
01:00 1025 30.27 854 25.22 -13.6 7.5 69 -18.2 -0.8
01:05 1025 30.27 854 25.22 -13.4 8 68 -18.1 -0.7
01:10 1025 30.27 854 25.22 -13 8.6 67 -18 -0.4
01:15 1025 30.27 854 25.22 -13.1 8.5 66 -18.1 -0.6
01:20 1025 30.27 854 25.22 -13 8.7 66 -18.1 -0.5
01:25 1025 30.27 854 25.22 -13.3 8.1 68 -18 -0.4
01:30 1025 30.27 854 25.22 -12.6 9.4 63 -18.1 -0.7
01:35 1025 30.27 854 25.22 -12.4 9.8 65 -17.7 0.2
01:40 1025 30.27 854 25.22 -12.4 9.7 64 -17.9 -0.3
01:45 1025 30.27 854 25.22 -12.3 9.8 63 -18 -0.4
01:50 1025 30.27 854 25.22 -12.7 9.1 65 -18.1 -0.5
01:55 1025 30.27 854 25.22 -13.1 8.4 66 -18.1 -0.6
02:00 1025 30.27 854 25.22 -13.2 8.3 67 -18.1 -0.6
02:05 1025 30.27 854 25.22 -13 8.7 67 -17.9 -0.2
02:10 1024 30.24 854 25.22 -12.4 9.6 65 -17.7 0.1
02:15 1024 30.24 853 25.19 -12.1 10.2 64 -17.6 0.2
02:20 1024 30.24 853 25.19 -11.9 10.5 63 -17.7 0.2
02:25 1024 30.24 853 25.19 -12.9 8.8 67 -17.8 0
02:30 1024 30.24 853 25.19 -13.5 7.6 69 -18.1 -0.6
02:35 1024 30.24 853 25.19 -13.5 7.7 70 -17.9 -0.3
02:40 1024 30.24 853 25.19 -13.3 8.2 70 -17.6 0.3
02:45 1024 30.24 853 25.19 -12.9 8.8 67 -17.7 0.1
02:50 1023 30.21 853 25.19 -11.5 11.2 64 -17.1 1.2
02:55 1023 30.21 853 25.19 -11.6 11.2 66 -16.8 1.8
03:00 1023 30.21 853 25.19 -11.8 10.7 63 -17.5 0.5
03:05 1023 30.21 852 25.16 -12.1 10.2 67 -17 1.3
03:10 1023 30.21 852 25.16 -12.7 9.2 68 -17.4 0.7
03:15 1023 30.21 852 25.16 -12.5 9.5 69 -17.1 1.3
03:20 1023 30.21 852 25.16 -12.5 9.5 66 -17.6 0.3
03:25 1023 30.21 852 25.16 -14.1 6.6 74 -17.8 -0
03:30 1023 30.21 852 25.16 -14.4 6 79 -17.3 0.9
03:35 1023 30.21 852 25.16 -13.3 8.1 72 -17.3 0.8
03:40 1023 30.21 852 25.16 -13.1 8.4 74 -16.9 1.6
03:45 1023 30.21 852 25.16 -13 8.6 76 -16.4 2.5
03:50 1023 30.21 852 25.16 -12.8 8.9 72 -16.8 1.7
03:55 1023 30.21 852 25.16 -12.7 9.1 73 -16.6 2.1
04:00 1023 30.21 852 25.16 -12.9 8.8 73 -16.8 1.8
04:05 1023 30.21 852 25.16 -12.8 8.9 72 -16.9 1.5
04:10 1023 30.21 852 25.16 -12.9 8.7 72 -17 1.4
04:15 1023 30.21 852 25.16 -13 8.6 72 -17.1 1.2
04:20 1023 30.21 852 25.16 -12.9 8.9 70 -17.3 0.8
04:25 1023 30.21 852 25.16 -13.3 8.2 71 -17.5 0.5
04:30 1023 30.21 852 25.16 -13.4 8 73 -17.2 1.1
04:35 1023 30.21 852 25.16 -12.8 9 74 -16.5 2.2
04:40 1023 30.21 852 25.16 -12.3 9.9 71 -16.5 2.3
04:45 1023 30.21 852 25.16 -12.3 9.9 70 -16.7 2
04:50 1023 30.21 852 25.16 -12.2 10 71 -16.6 2.2
04:55 1023 30.21 852 25.16 -12.1 10.1 70 -16.6 2.1
05:00 1023 30.21 852 25.16 -12 10.4 70 -16.4 2.5
05:05 1022 30.18 852 25.16 -11.8 10.8 71 -16 3.2
05:10 1022 30.18 852 25.16 -11.7 11 69 -16.3 2.7
05:15 1022 30.18 852 25.16 -11.6 11.1 69 -16.2 2.9
05:20 1022 30.18 851 25.13 -12 10.5 70 -16.3 2.6
05:25 1022 30.18 851 25.13 -12.5 9.5 71 -16.7 2
05:30 1022 30.18 851 25.13 -12.7 9.1 72 -16.8 1.7
05:35 1022 30.18 851 25.13 -13.2 8.2 73 -17.1 1.3
05:40 1022 30.18 851 25.13 -13.8 7.2 76 -17.1 1.2
05:45 1021 30.15 851 25.13 -13.6 7.5 72 -17.6 0.3
05:50 1021 30.15 851 25.13 -13.2 8.2 70 -17.6 0.3
05:55 1021 30.15 850 25.1 -13.1 8.4 69 -17.6 0.3
06:00 1021 30.15 850 25.1 -13.4 7.9 71 -17.6 0.3
06:05 1021 30.15 850 25.1 -13.2 8.2 71 -17.5 0.5
06:10 1021 30.15 850 25.1 -12.8 8.9 69 -17.4 0.7
06:15 1021 30.15 850 25.1 -13.1 8.4 70 -17.4 0.7
06:20 1020 30.12 850 25.1 -12.9 8.7 70 -17.4 0.7
06:25 1020 30.12 850 25.1 -12 10.4 67 -16.9 1.6
06:30 1020 30.12 849 25.07 -11.8 10.8 67 -16.8 1.8
06:35 1020 30.12 849 25.07 -11.7 10.9 67 -16.8 1.8
06:40 1020 30.12 849 25.07 -11.5 11.4 66 -16.7 2
06:45 1020 30.12 849 25.07 -11.8 10.9 68 -16.6 2.2
06:50 1020 30.12 849 25.07 -11.8 10.7 68 -16.5 2.3
06:55 1020 30.12 849 25.07 -11.6 11.2 67 -16.5 2.2
07:00 1020 30.12 849 25.07 -11.6 11.2 68 -16.3 2.6
07:05 1020 30.12 849 25.07 -11.5 11.4 67 -16.5 2.4
07:10 1020 30.12 849 25.07 -10.6 12.9 62 -16.6 2.2
07:15 1020 30.12 849 25.07 -10.5 13 66 -15.8 3.6
07:20 1020 30.12 849 25.07 -11.4 11.5 68 -16.3 2.7
07:25 1020 30.12 849 25.07 -11.5 11.3 70 -16 3.2
07:30 1020 30.12 849 25.07 -11 12.2 64 -16.6 2.1
07:35 1019 30.09 849 25.07 -10.5 13.1 65 -15.9 3.3
07:40 1019 30.09 848 25.04 -10.6 12.8 63 -16.3 2.6
07:45 1019 30.09 848 25.04 -10.6 13 64 -16.1 3
07:50 1019 30.09 848 25.04 -11.1 12.1 66 -16.3 2.7
07:55 1019 30.09 848 25.04 -10.6 12.9 63 -16.3 2.6
08:00 1019 30.09 848 25.04 -10.4 13.2 65 -15.9 3.5
08:05 1019 30.09 848 25.04 -10.4 13.3 64 -16 3.1
08:10 1019 30.09 848 25.04 -10 14 63 -15.7 3.7
08:15 1018 30.06 848 25.04 -10 14.1 65 -15.4 4.2
08:20 1018 30.06 848 25.04 -10 13.9 64 -15.6 4
08:25 1018 30.06 848 25.04 -9.6 14.7 63 -15.4 4.3
08:30 1018 30.06 848 25.04 -9.4 15.1 62 -15.3 4.4
08:35 1018 30.06 848 25.04 -9.3 15.4 62 -15.3 4.4
08:40 1018 30.06 848 25.04 -9 15.9 61 -15.3 4.5
08:45 1019 30.09 848 25.04 -8.7 16.3 58 -15.5 4.1
08:50 1019 30.09 848 25.04 -8.3 17 58 -15.3 4.5
08:55 1019 30.09 848 25.04 -8.2 17.2 59 -14.8 5.4
09:00 1019 30.09 848 25.04 -8.2 17.2 60 -14.7 5.6
09:05 1019 30.09 848 25.04 -8.2 17.2 60 -14.7 5.6
09:10 1019 30.09 848 25.04 -8.1 17.4 60 -14.6 5.8
09:15 1019 30.09 848 25.04 -7.9 17.7 60 -14.5 6
09:20 1019 30.09 848 25.04 -7.8 17.9 59 -14.6 5.8
09:25 1019 30.09 848 25.04 -7.8 17.9 59 -14.5 6
09:30 1019 30.09 848 25.04 -7.9 17.8 59 -14.6 5.7
09:35 1019 30.09 848 25.04 -7.8 17.9 60 -14.3 6.3
09:40 1018 30.06 848 25.04 -7.6 18.4 61 -13.8 7.2
09:45 1019 30.09 848 25.04 -7.7 18.2 63 -13.5 7.7
09:50 1018 30.06 848 25.04 -8.2 17.3 63 -14.1 6.6
09:55 1018 30.06 848 25.04 -8.3 17.1 63 -14.1 6.6
10:00 1018 30.06 847 25.01 -8.2 17.2 62 -14.4 6.1
10:05 1018 30.06 847 25.01 -8 17.6 60 -14.4 6.2
10:10 1018 30.06 847 25.01 -7.7 18.1 60 -14.2 6.5
10:15 1018 30.06 847 25.01 -7.9 17.8 62 -13.9 6.9
10:20 1018 30.06 847 25.01 -8 17.7 63 -13.8 7.1
10:25 1018 30.06 847 25.01 -7.9 17.7 62 -14.1 6.7
10:30 1018 30.06 847 25.01 -7.8 17.9 62 -13.9 7
10:35 1018 30.06 848 25.04 -7.8 17.9 63 -13.8 7.2
10:40 1019 30.09 848 25.04 -7.4 18.7 61 -13.7 7.3
10:45 1019 30.09 848 25.04 -7.1 19.3 59 -13.8 7.2
10:50 1019 30.09 848 25.04 -6.7 20 58 -13.6 7.5
10:55 1018 30.06 847 25.01 -6.2 20.9 55 -13.8 7.1
11:00 1018 30.06 847 25.01 -5.7 21.7 54 -13.5 7.7
11:05 1018 30.06 847 25.01 -5.4 22.3 53 -13.4 7.8
11:10 1018 30.06 847 25.01 -5.1 22.7 54 -13.1 8.3
11:15 1018 30.06 847 25.01 -5.1 22.9 54 -13 8.5
11:20 1018 30.06 847 25.01 -4.9 23.1 52 -13.3 8.1
11:25 1018 30.06 847 25.01 -4.7 23.5 53 -12.8 9
11:30 1018 30.06 847 25.01 -4.3 24.3 51 -13 8.6
11:35 1018 30.06 847 25.01 -4.2 24.5 53 -12.4 9.7
11:40 1018 30.06 847 25.01 -4.2 24.4 53 -12.5 9.4
11:45 1018 30.06 847 25.01 -5.1 22.9 57 -12.3 9.9
11:50 1018 30.06 847 25.01 -5.3 22.4 56 -12.8 9
11:55 1018 30.06 847 25.01 -5.4 22.3 57 -12.7 9.1
12:00 1018 30.06 847 25.01 -5.1 22.7 56 -12.7 9.1
12:05 1018 30.06 847 25.01 -4.8 23.3 55 -12.6 9.3
12:10 1018 30.06 847 25.01 -5 22.9 56 -12.6 9.3
12:15 1018 30.06 847 25.01 -4.8 23.3 54 -12.7 9.1
12:20 1017 30.03 847 25.01 -5 23 55 -12.7 9.1
12:25 1017 30.03 847 25.01 -5.2 22.6 56 -12.7 9.1
12:30 1017 30.03 847 25.01 -4.8 23.4 52 -13.2 8.3
12:35 1017 30.03 847 25.01 -4.6 23.8 52 -13.1 8.5
12:40 1017 30.03 846 24.98 -4.3 24.2 53 -12.5 9.4
12:45 1017 30.03 846 24.98 -4.2 24.5 52 -12.5 9.4
12:50 1017 30.03 846 24.98 -3.8 25.2 51 -12.5 9.6
12:55 1017 30.03 846 24.98 -3.1 26.4 50 -12.2 10.1
13:00 1017 30.03 846 24.98 -3 26.6 52 -11.6 11.1
13:05 1017 30.03 846 24.98 -3.2 26.2 53 -11.6 11.2
13:10 1017 30.03 846 24.98 -3.4 25.9 52 -11.9 10.6
13:15 1017 30.03 846 24.98 -3.1 26.5 49 -12.2 10
13:20 1017 30.03 846 24.98 -2.7 27.1 47 -12.6 9.3
13:25 1017 30.03 846 24.98 -2.8 26.9 50 -11.8 10.7
13:30 1017 30.03 846 24.98 -2.7 27.1 48 -12.3 9.9
13:35 1017 30.03 846 24.98 -2.5 27.6 49 -11.9 10.7
13:40 1017 30.03 846 24.98 -2.4 27.6 47 -12.2 10
13:45 1017 30.03 846 24.98 -2.2 28 50 -11.4 11.5
13:50 1017 30.03 846 24.98 -2.1 28.2 50 -11.3 11.7
13:55 1017 30.03 846 24.98 -2.1 28.2 50 -11.2 11.8
14:00 1017 30.03 846 24.98 -2.1 28.2 50 -11.3 11.7
14:05 1017 30.03 846 24.98 -2 28.4 50 -11.2 11.9
14:10 1017 30.03 846 24.98 -1.8 28.8 47 -11.7 11
14:15 1017 30.03 846 24.98 -1.6 29.2 45 -11.9 10.6
14:20 1017 30.03 846 24.98 -1.5 29.3 48 -11.1 12.1
14:25 1017 30.03 846 24.98 -1.5 29.4 48 -11 12.1
14:30 1017 30.03 846 24.98 -1.3 29.6 48 -11.1 12
14:35 1017 30.03 846 24.98 -1.4 29.5 49 -10.7 12.8
14:40 1017 30.03 846 24.98 -1.5 29.4 50 -10.6 12.8
14:45 1017 30.03 847 25.01 -1.5 29.4 50 -10.7 12.8
14:50 1017 30.03 847 25.01 -1.3 29.6 51 -10.3 13.4
14:55 1017 30.03 847 25.01 -1.2 29.9 50 -10.3 13.5
15:00 1017 30.03 847 25.01 -1 30.2 49 -10.5 13
15:05 1017 30.03 847 25.01 -0.4 31.2 47 -10.4 13.3
15:10 1017 30.03 847 25.01 0.1 32.2 46 -10.3 13.4
15:15 1018 30.06 847 25.01 0.6 33.1 44 -10.3 13.5
15:20 1018 30.06 847 25.01 1.2 34.1 44 -9.8 14.4
15:25 1018 30.06 847 25.01 1.7 35.1 47 -8.5 16.7
15:30 1018 30.06 847 25.01 2.1 35.8 46 -8.3 17.1
15:35 1018 30.06 847 25.01 2.2 35.9 44 -8.9 16.1
15:40 1018 30.06 847 25.01 2.3 36.1 43 -9 15.8
15:45 1018 30.06 847 25.01 2.3 36.2 43 -9.1 15.6
15:50 1018 30.06 847 25.01 2.2 36 43 -9.1 15.6
15:55 1018 30.06 847 25.01 2 35.6 44 -9.2 15.5
16:00 1018 30.06 847 25.01 1.8 35.3 45 -8.9 15.9
16:05 1018 30.06 847 25.01 1.8 35.2 45 -9.1 15.6
16:10 1018 30.06 847 25.01 1.8 35.3 44 -9.1 15.6
16:15 1018 30.06 847 25.01 2 35.5 42 -9.5 14.9
16:20 1018 30.06 847 25.01 2.2 36 41 -9.7 14.6
16:25 1018 30.06 847 25.01 2.2 36 41 -9.8 14.3
16:30 1018 30.06 847 25.01 2.2 36 42 -9.4 15.1
16:35 1018 30.06 847 25.01 2 35.6 43 -9.3 15.2
16:40 1017 30.03 847 25.01 1.9 35.4 42 -9.7 14.6
16:45 1017 30.03 847 25.01 1.9 35.4 44 -9.1 15.6
16:50 1017 30.03 847 25.01 1.7 35.1 44 -9.4 15.2
16:55 1018 30.06 847 25.01 1.7 35.1 44 -9.3 15.3
17:00 1017 30.03 847 25.01 1.7 35.1 44 -9.2 15.4
17:05 1017 30.03 847 25.01 1.7 35 45 -9.1 15.7
17:10 1018 30.06 847 25.01 1.6 34.9 45 -9.2 15.4
17:15 1017 30.03 847 25.01 1.8 35.3 44 -9.1 15.6
17:20 1017 30.03 846 24.98 1.9 35.4 45 -8.8 16.2
17:25 1017 30.03 846 24.98 2 35.6 45 -8.7 16.3
17:30 1017 30.03 846 24.98 2 35.6 45 -8.7 16.4
17:35 1017 30.03 847 25.01 1.9 35.5 44 -9 15.8
17:40 1018 30.06 847 25.01 2 35.6 44 -9 15.7
17:45 1017 30.03 847 25.01 2 35.6 45 -8.8 16.2
17:50 1017 30.03 847 25.01 1.8 35.2 45 -8.8 16.1
17:55 1018 30.06 847 25.01 1.8 35.3 44 -9.1 15.7
18:00 1018 30.06 847 25.01 1.8 35.3 45 -8.9 16
18:05 1018 30.06 847 25.01 1.8 35.2 45 -8.8 16.1
18:10 1018 30.06 847 25.01 1.8 35.3 47 -8.4 16.9
18:15 1018 30.06 847 25.01 1.7 35.1 46 -8.8 16.2
18:20 1018 30.06 847 25.01 1.9 35.5 45 -8.9 15.9
18:25 1018 30.06 847 25.01 2.1 35.8 44 -9 15.9
18:30 1018 30.06 847 25.01 2.2 36 44 -8.7 16.4
18:35 1018 30.06 847 25.01 2.1 35.9 45 -8.7 16.3
18:40 1018 30.06 847 25.01 2.2 35.9 44 -8.9 16
18:45 1018 30.06 847 25.01 2.2 36 44 -8.7 16.3
18:50 1018 30.06 847 25.01 2 35.7 46 -8.3 17
18:55 1018 30.06 848 25.04 1.9 35.5 45 -8.9 16.1
19:00 1018 30.06 848 25.04 2.1 35.7 44 -8.8 16.1
19:05 1018 30.06 848 25.04 2.4 36.4 43 -9.1 15.7
19:10 1018 30.06 848 25.04 2.5 36.5 43 -8.9 15.9
19:15 1019 30.09 848 25.04 2.5 36.5 44 -8.6 16.5
19:20 1019 30.09 848 25.04 2.4 36.4 43 -9 15.9
19:25 1019 30.09 848 25.04 2.5 36.4 43 -8.8 16.2
19:30 1019 30.09 848 25.04 2.3 36.2 44 -8.6 16.6
19:35 1019 30.09 848 25.04 2.2 35.9 44 -9 15.8
19:40 1019 30.09 848 25.04 2 35.7 43 -9.2 15.4
19:45 1019 30.09 848 25.04 1.9 35.5 43 -9.3 15.3
19:50 1019 30.09 848 25.04 1.9 35.5 44 -9.2 15.5
19:55 1019 30.09 848 25.04 1.9 35.4 43 -9.3 15.3
20:00 1019 30.09 848 25.04 1.8 35.2 44 -9.3 15.3
20:05 1019 30.09 848 25.04 1.8 35.2 43 -9.5 14.8
20:10 1019 30.09 848 25.04 1.8 35.3 44 -9.3 15.3
20:15 1019 30.09 848 25.04 1.6 34.9 45 -9 15.7
20:20 1019 30.09 848 25.04 1.2 34.2 46 -9.2 15.4
20:25 1019 30.09 848 25.04 1.2 34.2 46 -9.3 15.3
20:30 1019 30.09 848 25.04 1.4 34.5 44 -9.6 14.8
20:35 1019 30.09 848 25.04 1.4 34.6 45 -9.4 15.1
20:40 1019 30.09 848 25.04 1.3 34.4 45 -9.4 15.1
20:45 1019 30.09 849 25.07 1.3 34.3 45 -9.3 15.3
20:50 1020 30.12 849 25.07 1.2 34.2 46 -9.2 15.4
20:55 1020 30.12 849 25.07 1.2 34.2 46 -9.1 15.6
21:00 1020 30.12 849 25.07 1.1 34.1 47 -9 15.7
21:05 1020 30.12 849 25.07 0.7 33.3 49 -8.8 16.2
21:10 1020 30.12 849 25.07 0.4 32.7 49 -9.1 15.6
21:15 1020 30.12 849 25.07 0.3 32.6 49 -9.2 15.4
21:20 1020 30.12 849 25.07 0.3 32.5 49 -9.2 15.5
21:25 1020 30.12 849 25.07 0.1 32.2 49 -9.3 15.2
21:30 1020 30.12 849 25.07 0.2 32.3 48 -9.6 14.7
21:35 1020 30.12 850 25.1 0.4 32.7 48 -9.5 14.9
21:40 1020 30.12 850 25.1 0.5 32.9 47 -9.6 14.6
21:45 1021 30.15 850 25.1 0.6 33.1 49 -9 15.8
21:50 1021 30.15 850 25.1 0.7 33.2 47 -9.3 15.2
21:55 1021 30.15 850 25.1 0.6 33.1 47 -9.5 14.9
22:00 1021 30.15 850 25.1 0.8 33.4 47 -9.4 15.2
22:05 1021 30.15 850 25.1 0.7 33.3 47 -9.4 15.1
22:10 1021 30.15 850 25.1 0.5 33 48 -9.2 15.4
22:15 1021 30.15 850 25.1 0.3 32.6 49 -9.1 15.7
22:20 1021 30.15 850 25.1 0.2 32.3 48 -9.5 14.8
22:25 1021 30.15 850 25.1 0.2 32.4 47 -9.8 14.4
22:30 1021 30.15 850 25.1 0.2 32.4 47 -9.9 14.3
22:35 1021 30.15 850 25.1 0 32 46 -10.4 13.3
22:40 1021 30.15 850 25.1 0 32 44 -10.7 12.7
22:45 1021 30.15 851 25.13 0.2 32.4 44 -10.8 12.6
22:50 1021 30.15 851 25.13 0.4 32.8 43 -10.7 12.7
22:55 1021 30.15 851 25.13 0.5 32.8 43 -10.6 13
23:00 1021 30.15 851 25.13 0.3 32.5 44 -10.5 13.1
23:05 1021 30.15 851 25.13 -0 32 45 -10.5 13.1
23:10 1021 30.15 851 25.13 -0.3 31.5 46 -10.6 13
23:15 1021 30.15 851 25.13 -0.2 31.6 46 -10.6 13
23:20 1021 30.15 851 25.13 -0.3 31.4 46 -10.6 12.9
23:25 1022 30.18 851 25.13 -0.5 31.1 46 -10.6 12.8
23:30 1021 30.15 851 25.13 -0.7 30.8 47 -10.6 12.9
23:35 1022 30.18 851 25.13 -0.6 30.9 46 -10.9 12.4
23:40 1022 30.18 851 25.13 -0.5 31.2 45 -10.9 12.4
23:45 1022 30.18 851 25.13 -0.5 31.1 45 -11 12.2
23:50 1022 30.18 851 25.13 -0.5 31.1 45 -11.1 12.1
23:55 1022 30.18 851 25.13 -0.5 31.2 45 -11.1 12
24:00 1022 30.18 851 25.13 -0.7 30.7 46 -11.1 12.1